Temp
-2 -0 -0 1 1 2 2 2 2 1 1 1 2 3 3 3 5 5 5 5 4 4 4 4 4 4 3 3 3 2 2 2 2 3 3 2 2 3 3 3 3 3 3
-2 -0 0 0 0 0 0 1 0 1 -0 0 1 1 3 3 3 4 4 4 3 3 3 3 4 4 3 3 2 2 3 2 2 3 3 2 2 2 2 3 3 3 3
-1 -1 -1 -1 0 -0 -0 0 0 1 1 1 1 1 2 2 3 3 3 3 3 3 3 3 3 3 3 3 2 3 2 2 2 2 3 2 2 3 2 3 3 3 3
-3 -2 -1 -1 -0 -0 0 -0 -0 0 1 0 1 2 2 2 2 2 2 2 2 2 3 2 2 3 3 3 3 2 2 2 2 2 2 2 2 3 3 3 3 3 3
-4 -4 -3 -2 -2 -1 -1 -1 -1 -0 -1 0 0 0 0 0 0 0 1 2 2 1 1 1 1 1 1 2 2 2 2 2 2 2 1 2 2 3 3 3 3 2 2
-6 -5 -5 -4 -5 -3 -3 -3 -2 -1 -1 -2 -2 -2 -0 -1 -1 -1 -1 -0 0 -0 -0 -0 1 1 1 1 1 2 2 2 1 1 2 2 2 2 2 2 2 2 2
-4 -4 -3 -4 -3 -3 -3 -2 -2 -2 -2 -2 -2 -2 -2 -2 -2 -2 -2 -3 -2 -2 -0 -1 -1 0 0 0 0 -0 1 1 1 1 1 1 1 1 2 1 1 2 2
-4 -4 -4 -3 -3 -3 -3 -2 -2 -1 -2 -2 -2 -2 -2 -2 -2 -2 -2 -2 -2 -2 -2 -2 -1 -1 0 -1 0 0 0 -0 1 0 0 1 2 1 1 0 0 -0 -0
-4 -3 -3 -3 -4 -4 -3 -3 -3 -3 -2 -2 -2 -2 -2 -2 -2 -3 -2 -2 -2 -2 -2 -2 -2 -2 -2 -2 -1 -1 -0 -0 0 0 1 1 -0 1 0 -0 -0 -1 1
-4 -4 -4 -4 -4 -4 -3 -3 -3 -3 -3 -3 -3 -3 -3 -3 -3 -3 -3 -3 -3 -3 -3 -3 -2 -2 -2 -2 -2 -2 -1 -1 -1 -1 -0 0 -0 -0 -0 0 -0 -0 -1
-5 -5 -5 -5 -4 -4 -4 -4 -4 -4 -4 -4 -4 -4 -4 -4 -4 -4 -3 -3 -3 -3 -3 -3 -3 -3 -3 -3 -3 -3 -3 -2 -2 -1 -1 -1 -0 -0 -0 -0 -1 -1 -0
-6 -6 -6 -5 -5 -5 -5 -5 -5 -5 -5 -5 -5 -5 -5 -5 -5 -5 -5 -5 -5 -4 -4 -4 -4 -4 -4 -3 -3 -3 -3 -3 -3 -2 -2 -1 -1 -1 -1 -1 -1 -1 -1
-7 -7 -7 -6 -6 -6 -6 -6 -6 -6 -6 -6 -6 -6 -6 -6 -6 -6 -7 -7 -7 -7 -6 -6 -6 -6 -5 -5 -5 -5 -5 -4 -4 -4 -3 -3 -3 -2 -2 -1 -1 -1 -1
-7 -7 -7 -7 -7 -6 -6 -6 -6 -6 -7 -7 -7 -7 -7 -8 -7 -8 -8 -8 -8 -8 -8 -8 -8 -8 -8 -7 -6 -6 -6 -6 -6 -5 -5 -4 -4 -4 -4 -3 -3 -2 -1
-8 -8 -7 -7 -7 -7 -7 -7 -7 -7 -8 -8 -8 -8 -8 -8 -8 -9 -9 -10 -10 -11 -11 -11 -11 -10 -10 -10 -9 -9 -8 -8 -8 -7 -7 -6 -6 -5 -5 -4 -4 -4 -3
-8 -8 -8 -8 -8 -8 -9 -9 -9 -8 -8 -9 -9 -10 -10 -10 -11 -12 -12 -13 -13 -13 -13 -13 -13 -13 -12 -12 -11 -10 -11 -10 -10 -9 -9 -8 -8 -7 -7 -6 -6 -6 -6
-9 -9 -9 -9 -10 -10 -10 -10 -10 -11 -11 -11 -11 -12 -13 -13 -14 -15 -15 -16 -16 -16 -16 -15 -15 -15 -15 -15 -14 -14 -14 -14 -13 -12 -11 -11 -10 -9 -8 -8 -8 -8 -8
-10 -10 -10 -11 -11 -11 -11 -11 -12 -12 -12 -12 -13 -14 -15 -16 -17 -17 -18 -18 -18 -18 -18 -17 -17 -17 -17 -17 -17 -17 -17 -16 -16 -15 -13 -13 -12 -11 -11 -10 -10 -10 -9
-10 -11 -11 -12 -12 -12 -12 -13 -13 -13 -14 -14 -15 -16 -17 -18 -18 -19 -19 -19 -19 -19 -19 -19 -19 -18 -19 -19 -19 -19 -18 -18 -17 -16 -16 -15 -14 -14 -13 -13 -12 -12 -11
-11 -12 -12 -12 -13 -13 -13 -14 -14 -15 -16 -17 -17 -18 -18 -19 -19 -19 -19 -19 -19 -20 -20 -20 -20 -20 -20 -20 -20 -20 -20 -19 -19 -18 -18 -17 -16 -16 -15 -15 -14 -14 -13
-12 -13 -13 -14 -14 -15 -15 -15 -16 -17 -17 -18 -19 -19 -19 -20 -20 -20 -20 -20 -20 -20 -20 -21 -21 -21 -21 -21 -21 -21 -21 -20 -20 -20 -19 -19 -18 -17 -17 -16 -15 -15 -15
-13 -14 -14 -15 -15 -16 -16 -17 -17 -18 -19 -19 -20 -20 -20 -21 -21 -21 -21 -21 -21 -21 -21 -21 -21 -21 -22 -21 -21 -21 -21 -21 -21 -21 -20 -20 -20 -19 -19 -18 -18 -17 -17
-14 -14 -15 -16 -16 -17 -17 -18 -19 -19 -20 -20 -21 -21 -21 -21 -21 -22 -22 -22 -22 -22 -22 -22 -22 -22 -22 -22 -22 -22 -22 -22 -22 -22 -22 -22 -21 -21 -20 -19 -19 -19 -19
-15 -15 -16 -17 -17 -18 -18 -19 -20 -20 -21 -21 -22 -22 -22 -22 -22 -22 -23 -23 -23 -23 -23 -23 -23 -23 -23 -23 -23 -23 -23 -23 -22 -22 -22 -22 -22 -22 -22 -21 -21 -21 -21
-16 -16 -17 -18 -18 -19 -20 -20 -21 -21 -22 -22 -22 -23 -23 -23 -23 -23 -23 -24 -24 -24 -24 -24 -24 -24 -24 -23 -24 -23 -23 -23 -23 -23 -23 -22 -22 -22 -22 -22 -22 -22 -22
-17 -18 -18 -19 -19 -20 -21 -21 -22 -22 -23 -23 -24 -24 -24 -24 -25 -25 -25 -25 -25 -25 -25 -25 -25 -24 -24 -24 -24 -24 -24 -24 -24 -23 -23 -23 -23 -23 -23 -23 -22 -22 -22
Height
2955 2964 2969 2974 2980 2988 2995 3001 3004 3003 3004 3010 3021 3029 3036 3040 3043 3045 3047 3048 3049 3052 3055 3054 3057 3058 3056 3057 3054 3053 3054 3057 3053 3057 3060 3060 3057 3059 3061 3063 3061 3060 3060
2959 2965 2972 2976 2982 2984 2987 2992 3001 2999 3012 3014 3014 3028 3032 3035 3035 3037 3039 3038 3040 3043 3045 3046 3046 3049 3047 3046 3045 3044 3025 3042 3046 3048 3051 3050 3050 3052 3050 3052 3054 3051 3050
2968 2967 2975 2979 2983 2988 2993 2996 2999 3003 3004 3012 3011 3026 3025 3028 3027 3027 3027 3028 3030 3031 3033 3035 3036 3038 3035 3035 3035 3032 3026 3034 3036 3035 3040 3039 3039 3041 3041 3041 3043 3042 3041
2971 2972 2973 2979 2984 2988 2990 2992 2998 3003 3004 3010 3013 3016 3016 3017 3017 3017 3019 3020 3022 3021 3023 3024 3025 3025 3023 3022 3022 3023 3024 3024 3024 3024 3025 3027 3028 3029 3029 3031 3031 3032 3032
2979 2976 2977 2981 2984 2986 2988 2995 2997 3000 3005 3001 3006 3008 3010 3008 3008 3011 3008 3011 3011 3012 3010 3012 3012 3013 3012 3011 3010 3011 3012 3013 3012 3008 3008 3012 3013 3017 3019 3021 3020 3020 3021
2992 2985 2984 2984 2987 2986 2990 2994 2996 3000 3000 3004 3006 3005 3005 3004 2999 3002 3002 3002 3001 3000 2999 3000 2999 2999 3000 3000 2999 2999 3001 3001 3000 3001 3002 2998 2999 3005 3006 3009 3009 3008 3007
3001 2998 2998 2997 2997 2998 2998 2999 3000 3001 3003 3002 3000 3001 2998 2997 2999 2998 2995 2994 2993 2991 2990 2989 2988 2984 2983 2983 2985 2985 2989 2988 2988 2988 2986 2987 2988 2989 2991 2992 2993 2995 2996
3006 3005 3003 3002 3002 3001 3002 3002 3002 3000 3001 3000 2999 2998 2999 2998 2995 2996 2995 2991 2989 2987 2983 2980 2977 2975 2975 2976 2975 2975 2973 2974 2974 2975 2975 2977 2977 2977 2976 2981 2983 2984 2983
3011 3010 3007 3005 3004 3003 3002 3001 3000 3000 2999 2998 2998 2998 2996 2995 2994 2994 2991 2988 2986 2982 2979 2976 2973 2970 2967 2967 2963 2963 2963 2963 2963 2963 2962 2964 2964 2967 2965 2969 2968 2970 2971
3013 3011 3008 3007 3005 3004 3003 3003 3002 3002 3001 3000 2999 2997 2997 2995 2994 2991 2990 2986 2981 2979 2975 2970 2967 2965 2962 2960 2958 2955 2952 2950 2949 2949 2948 2949 2950 2952 2952 2953 2954 2956 2960
3016 3014 3013 3011 3009 3007 3005 3004 3003 3001 3000 2999 2997 2996 2994 2992 2989 2986 2983 2979 2976 2973 2969 2965 2961 2958 2955 2953 2949 2946 2943 2941 2938 2936 2934 2934 2934 2936 2937 2941 2944 2944 2945
3020 3018 3016 3015 3013 3012 3010 3008 3006 3004 3002 2999 2996 2993 2990 2986 2982 2978 2975 2973 2969 2965 2960 2957 2953 2950 2947 2945 2943 2939 2935 2932 2929 2926 2924 2922 2922 2922 2924 2927 2929 2931 2935
3019 3017 3014 3012 3011 3009 3007 3005 3002 2999 2996 2992 2989 2986 2983 2980 2976 2973 2970 2965 2961 2957 2953 2949 2945 2942 2938 2934 2931 2929 2925 2924 2921 2918 2915 2912 2910 2910 2911 2912 2913 2916 2918
3018 3015 3013 3010 3007 3005 3002 2999 2997 2994 2990 2986 2982 2979 2976 2971 2967 2964 2961 2956 2952 2948 2944 2940 2936 2933 2929 2924 2920 2918 2916 2914 2911 2909 2906 2903 2900 2900 2898 2897 2899 2901 2903
3018 3015 3013 3010 3007 3003 2999 2996 2992 2988 2984 2979 2975 2969 2964 2961 2956 2950 2945 2940 2936 2933 2928 2925 2923 2920 2916 2914 2912 2909 2906 2903 2900 2898 2897 2895 2893 2891 2889 2888 2888 2887 2887
3016 3013 3009 3006 3002 2998 2994 2989 2983 2978 2974 2972 2969 2965 2960 2953 2949 2944 2938 2931 2926 2921 2917 2913 2911 2907 2904 2902 2899 2896 2894 2892 2890 2888 2887 2886 2884 2883 2881 2880 2879 2878 2877
3013 3010 3006 3002 2998 2995 2990 2986 2983 2979 2974 2968 2962 2960 2952 2944 2937 2933 2928 2923 2917 2914 2910 2904 2901 2897 2893 2890 2888 2884 2883 2881 2880 2879 2878 2877 2876 2875 2874 2873 2872 2871 2870
3010 3006 3002 2997 2994 2989 2985 2980 2976 2970 2965 2960 2955 2947 2943 2934 2928 2924 2919 2915 2911 2907 2902 2896 2894 2890 2885 2882 2879 2876 2874 2874 2872 2870 2870 2869 2868 2867 2866 2866 2865 2864 2864
3006 3002 2997 2992 2988 2983 2979 2974 2968 2963 2957 2950 2943 2940 2935 2928 2921 2914 2910 2906 2902 2898 2894 2890 2886 2883 2879 2876 2873 2869 2867 2867 2865 2863 2862 2861 2860 2860 2859 2859 2858 2858 2858
3001 2996 2991 2987 2983 2978 2971 2966 2960 2954 2948 2941 2934 2927 2925 2921 2915 2910 2905 2900 2895 2891 2887 2883 2880 2877 2874 2870 2867 2864 2862 2861 2859 2856 2855 2854 2853 2853 2853 2852 2853 2853 2853
2995 2990 2986 2981 2975 2969 2962 2956 2951 2945 2939 2933 2927 2921 2915 2911 2906 2902 2898 2894 2890 2886 2882 2878 2874 2871 2868 2865 2863 2860 2857 2855 2853 2851 2849 2848 2847 2847 2846 2846 2847 2847 2848
2988 2983 2978 2972 2966 2961 2956 2950 2944 2938 2932 2926 2921 2916 2910 2906 2901 2896 2892 2888 2884 2880 2876 2873 2869 2866 2863 2860 2858 2856 2853 2851 2848 2846 2845 2844 2843 2842 2841 2840 2842 2841 2842
2981 2976 2971 2965 2959 2953 2947 2941 2935 2929 2924 2919 2914 2909 2904 2899 2895 2890 2886 2882 2878 2874 2870 2867 2864 2861 2858 2855 2852 2850 2849 2847 2845 2843 2841 2840 2839 2837 2837 2837 2838 2837 2838
2973 2968 2962 2956 2950 2944 2938 2933 2927 2922 2916 2912 2907 2902 2897 2893 2888 2884 2879 2875 2872 2868 2864 2861 2858 2855 2852 2850 2848 2846 2844 2843 2841 2839 2838 2837 2836 2835 2835 2834 2834 2835 2835
2964 2958 2952 2947 2941 2935 2929 2924 2918 2913 2909 2904 2899 2895 2890 2885 2881 2877 2873 2868 2865 2862 2858 2855 2852 2849 2846 2845 2842 2841 2839 2838 2837 2835 2834 2833 2833 2832 2832 2832 2833 2833 2834
2954 2949 2943 2937 2931 2925 2919 2914 2909 2904 2900 2895 2891 2886 2882 2877 2873 2869 2865 2861 2858 2854 2851 2848 2846 2843 2841 2839 2837 2836 2834 2833 2832 2831 2830 2830 2829 2829 2829 2828 2828 2830 2830
Wind_Speed
25 24 25 31 18 22 13 23 11 12 25 27 31 30 28 29 31 33 34 31 32 34 35 35 37 41 44 43 46 47 48 39 37 34 33 33 40 40 39 36 33 36 33
26 19 19 16 11 8 17 16 17 17 19 17 16 21 27 28 30 32 34 34 31 32 32 38 39 42 45 45 46 48 44 37 39 41 39 32 36 40 45 40 34 38 35
14 10 7 6 8 9 10 11 10 16 16 20 20 28 27 27 30 33 34 36 38 40 42 41 42 46 45 48 49 48 44 38 47 50 43 36 36 43 46 44 39 39 37
18 12 10 6 8 9 6 4 9 16 16 20 24 28 29 33 36 35 37 38 41 43 47 48 46 49 50 50 51 47 47 48 48 54 47 38 42 41 46 44 41 40 38
28 27 23 20 9 3 3 5 5 10 11 14 20 29 29 33 32 34 39 43 37 35 42 39 43 49 46 50 51 49 47 50 58 58 47 40 43 45 47 44 43 43 40
30 32 31 29 27 20 14 13 10 7 11 9 16 21 25 28 15 36 25 34 34 28 36 33 38 41 45 48 49 51 51 50 54 51 54 48 49 51 51 46 41 44 44
26 26 26 26 24 22 21 18 16 15 14 13 13 13 14 14 12 13 15 17 20 22 36 37 33 36 41 49 49 48 40 45 49 50 53 47 52 53 53 55 40 46 44
22 22 22 22 21 20 18 16 15 14 14 14 14 14 15 16 16 16 17 18 18 18 18 20 28 33 40 41 43 43 43 42 45 49 48 55 51 45 43 50 42 42 47
17 17 19 19 19 19 17 17 16 16 16 15 16 17 17 18 18 19 21 22 23 24 24 23 20 21 25 30 35 40 44 44 45 49 47 50 54 63 58 58 50 45 51
18 19 20 20 19 18 17 17 17 16 16 16 17 17 18 19 20 20 21 22 25 25 27 28 28 28 26 25 26 28 33 44 46 48 47 48 47 52 50 39 40 46 45
18 17 17 17 19 19 20 20 21 22 22 22 22 22 23 23 24 25 27 29 29 29 30 30 31 32 33 32 32 30 30 28 32 43 43 46 49 49 53 45 48 43 46
15 15 15 15 16 16 17 17 17 18 19 20 21 23 24 26 28 30 31 33 34 34 35 36 36 36 36 36 35 35 33 31 31 30 35 44 47 51 48 49 54 51 52
18 19 20 21 21 20 20 21 22 23 25 26 26 27 28 29 30 32 34 35 36 37 38 38 39 39 40 39 39 38 36 35 33 33 32 30 34 39 50 61 52 57 54
20 22 23 24 26 26 27 28 28 29 30 31 31 32 34 36 38 39 40 41 40 41 41 40 41 41 41 41 39 39 38 37 35 34 33 31 29 31 34 40 45 49 56
21 23 25 26 27 28 29 30 31 33 33 35 38 42 44 46 48 50 52 52 51 49 48 45 43 42 41 39 38 37 36 35 35 35 33 32 30 27 28 30 33 36 42
24 27 29 31 33 33 34 36 39 41 41 41 42 44 47 50 51 50 49 49 48 45 45 44 42 41 40 39 37 37 35 33 33 33 32 31 30 28 25 24 25 26 29
27 28 30 32 34 34 35 35 35 35 38 42 45 45 48 49 47 44 41 39 40 38 38 39 39 39 39 38 35 34 33 31 31 30 30 29 28 27 25 22 20 20 21
29 31 33 35 37 37 37 37 38 40 43 45 46 48 43 43 41 38 35 34 33 33 33 34 34 34 34 34 33 31 30 28 28 28 28 27 26 25 24 22 20 18 17
32 34 36 38 40 41 39 39 41 43 46 48 48 43 38 36 37 37 36 34 33 33 31 31 32 32 31 30 29 28 28 26 26 26 25 25 24 23 22 21 19 18 16
35 36 38 39 42 41 41 41 43 45 46 45 44 43 37 34 33 33 34 33 32 32 31 31 31 31 29 28 27 26 25 24 24 24 23 23 23 23 22 21 19 18 17
37 39 39 40 43 42 42 43 44 45 44 42 40 39 38 37 35 34 34 33 32 31 30 30 30 29 27 27 25 24 24 22 21 19 19 20 20 20 20 21 21 21 19
39 40 40 42 43 43 42 43 43 43 41 39 37 35 35 35 35 34 33 32 30 30 30 29 28 27 26 25 23 22 21 20 20 19 17 15 15 16 16 16 16 16 16
41 41 41 43 42 43 42 42 42 40 38 36 35 34 34 34 34 34 33 32 30 29 29 28 27 26 24 23 23 21 19 19 17 16 16 15 14 14 13 13 12 12 12
42 41 43 42 43 43 42 41 39 37 36 35 35 34 34 34 34 33 32 31 30 28 28 28 27 25 24 22 22 21 19 18 17 17 16 14 13 13 12 11 10 10 10
42 43 43 43 43 43 41 39 37 36 36 36 36 35 35 35 34 33 32 31 30 28 27 27 26 24 23 21 20 20 19 18 17 17 17 15 14 14 12 12 10 10 10
42 42 43 44 43 42 40 39 38 38 37 37 36 36 36 35 34 33 32 31 29 28 27 26 26 25 23 20 19 18 18 18 17 17 16 16 15 15 13 13 13 11 11
Wind_Direction
112 145 196 202 210 197 191 219 194 194 190 198 213 229 246 242 240 243 250 256 257 262 265 267 268 266 265 263 276 279 270 265 271 279 276 279 277 283 283 280 282 275 279
92 100 110 132 180 200 208 226 209 206 224 226 218 237 238 245 252 256 258 258 258 265 272 273 271 269 266 264 269 279 271 265 267 273 272 276 275 280 282 281 277 273 275
110 123 190 167 173 202 220 210 235 216 222 230 232 252 250 253 256 260 263 264 267 271 267 271 270 266 265 265 262 276 285 265 266 271 276 273 272 278 281 277 276 273 271
100 122 139 180 168 175 211 236 252 245 251 249 244 246 249 254 257 261 265 267 267 269 267 265 266 264 263 263 262 267 269 267 265 268 271 269 268 274 279 276 273 274 269
74 82 95 93 113 121 270 301 308 300 287 268 266 257 263 267 260 262 262 262 267 264 269 258 262 264 265 269 267 267 268 267 268 276 258 269 270 272 275 278 272 271 266
52 58 59 69 61 67 66 57 46 338 311 326 283 275 280 290 280 264 272 266 263 265 272 261 264 257 262 262 267 268 267 270 270 271 276 274 273 274 273 270 265 267 263
59 62 70 68 73 69 66 67 61 58 53 46 29 12 5 6 1 349 315 337 308 283 271 282 277 278 264 266 263 268 260 259 267 269 272 276 277 275 277 272 256 265 263
52 55 58 60 60 60 57 54 51 45 37 34 27 20 13 6 2 353 347 340 337 332 330 308 284 278 278 270 266 262 269 269 257 260 266 267 264 266 258 274 255 254 259
49 50 50 50 49 49 45 41 36 33 26 19 13 9 4 359 354 348 344 340 335 334 333 331 326 320 299 296 284 275 269 267 268 263 269 261 253 258 260 260 255 244 252
38 36 33 31 29 28 27 25 20 14 8 4 357 351 346 343 338 336 332 331 330 327 327 326 324 320 316 310 307 300 289 275 270 271 264 254 257 258 247 248 258 248 247
31 30 26 21 16 10 6 360 356 351 347 342 337 333 330 327 324 322 320 320 318 318 318 319 319 317 313 310 307 306 307 301 284 264 262 256 249 239 247 247 243 247 242
22 16 12 6 2 358 352 347 341 335 329 326 324 322 320 320 319 318 318 317 316 314 313 314 315 314 312 308 303 301 300 301 299 299 284 260 250 245 247 247 244 244 248
12 9 5 1 358 355 352 351 346 342 338 334 331 329 326 323 321 320 318 317 314 312 311 311 310 309 308 307 305 301 297 295 294 295 294 289 278 264 255 253 254 242 242
11 5 1 356 351 347 344 340 339 337 336 334 333 331 329 328 325 321 316 314 313 310 308 306 305 304 303 302 301 300 297 292 290 289 291 291 286 283 275 264 256 250 248
11 6 1 355 350 345 341 339 337 335 336 335 334 331 328 325 322 321 319 317 315 314 311 308 305 301 298 297 296 296 294 291 288 286 285 284 283 281 279 276 269 259 251
357 356 354 352 349 347 344 341 338 335 333 332 331 329 323 320 317 317 317 315 313 312 308 305 302 299 295 293 290 289 290 288 285 282 279 278 277 276 274 273 274 269 263
352 350 349 349 347 343 339 336 334 333 331 328 324 325 323 320 320 320 319 317 314 312 308 305 304 301 299 298 295 291 289 286 283 279 275 271 270 268 267 264 263 266 265
346 344 344 344 343 340 336 333 331 330 329 327 326 327 328 323 322 322 323 322 318 315 313 310 308 307 306 303 301 297 292 288 283 279 273 268 264 260 257 254 252 250 251
342 341 340 339 339 337 334 332 331 330 328 327 326 327 328 324 324 325 326 326 323 321 318 314 312 310 311 310 307 302 296 291 285 280 275 269 262 258 254 250 246 241 239
338 338 336 334 333 333 331 331 329 328 328 327 326 326 328 326 325 324 324 325 322 320 318 316 313 311 311 311 309 305 300 294 291 285 279 273 265 258 252 248 242 238 233
335 334 331 329 331 332 331 330 329 327 327 326 325 324 326 327 327 326 325 324 322 319 317 314 312 311 309 309 309 307 306 302 295 288 283 279 275 268 260 251 244 238 232
331 329 327 328 329 330 328 326 326 325 324 324 323 322 322 322 323 322 322 321 320 317 315 314 311 311 307 304 306 307 305 305 305 301 293 283 278 276 272 265 261 254 248
326 325 325 325 325 327 326 324 324 324 322 321 320 319 319 319 319 319 319 318 318 316 313 313 310 310 307 304 301 302 302 300 300 301 302 300 298 289 278 273 265 254 246
322 322 323 324 324 324 323 323 322 321 320 319 318 317 317 317 317 316 315 315 315 315 312 311 310 309 307 304 300 297 296 297 296 292 289 291 291 290 291 287 281 276 268
321 322 322 322 322 322 322 321 321 320 318 317 316 315 314 314 314 313 313 313 313 314 310 309 308 308 306 306 300 297 294 290 288 290 291 291 289 285 277 271 263 258 257
319 320 320 321 322 321 321 321 320 318 316 315 313 313 312 312 312 311 311 310 312 309 309 307 306 306 305 306 299 297 293 290 287 283 282 283 284 283 283 279 274 265 257